FW4518 Weather Reports


Display with metric or nautical units.
time (UTC)temp
F
wind
direction
speed
MPH
gust
MPH
rain 1hr
in
rain 24hr
in
rain mn
in
humidity
%
barometer
mb
20201031134119 26 0.0 0.0 0.00 0.00 0.00 100 1030.4
20201031133122 26 0.0 0.0 0.00 0.00 0.00 100 1030.3
20201031132122 26 0.0 0.0 0.00 0.00 0.00 100 1030.1
20201031131130 26 0.0 0.0 0.00 0.00 0.00 99 1029.9
20201031130118 27 0.0 0.0 0.00 0.00 0.00 99 1029.9
20201031125117 28 183 0.0 1.0 0.00 0.00 0.00 99 1029.8
20201031124158 28 0.0 0.0 0.00 0.00 0.00 98 1029.7
20201031123133 29 0.0 0.0 0.00 0.00 0.00 97 1029.5
20201031122116 30 0.0 1.0 0.00 0.00 0.00 96 1029.3
20201031121118 31 189 0.0 4.0 0.00 0.00 0.00 95 1029.2
20201031120116 32 153 3.0 6.0 0.00 0.00 0.00 94 1029.3
20201031115123 32 145 1.0 5.0 0.00 0.00 0.00 97 1029.5
20201031114117 30 0.0 1.0 0.00 0.00 0.00 99 1029.4
20201031113121 28 22 0.0 3.0 0.00 0.00 0.00 100 1029.2
20201031112117 28 0.0 0.0 0.00 0.00 0.00 100 1029.6
20201031111117 27 0.0 0.0 0.00 0.00 0.00 100 1029.4
20201031110118 27 0.0 0.0 0.00 0.00 0.00 100 1029.3
20201031105117 27 0.0 0.0 0.00 0.00 0.00 100 1029.2
20201031104118 27 0.0 0.0 0.00 0.00 0.00 100 1028.8
20201031103117 27 190 0.0 1.0 0.00 0.00 0.00 100 1028.7
20201031102120 27 0.0 0.0 0.00 0.00 0.00 100 1028.6
20201031101123 28 0.0 0.0 0.00 0.00 0.00 99 1028.5
20201031100120 29 0.0 0.0 0.00 0.00 0.00 99 1028.4
20201031095119 30 0.0 0.0 0.00 0.00 0.00 99 1028.4
20201031094158 30 0.0 0.0 0.00 0.00 0.00 99 1028.4
20201031093117 30 0.0 0.0 0.00 0.00 0.00 98 1028.4
20201031092117 31 0.0 0.0 0.00 0.00 0.00 98 1028.3
20201031091122 32 0.0 1.0 0.00 0.00 0.00 97 1028.2
20201031090120 33 0.0 0.0 0.00 0.00 0.00 95 1028.1
20201031085117 33 159 0.0 3.0 0.00 0.00 0.00 94 1028.2
20201031084122 33 0.0 0.0 0.00 0.00 0.00 97 1028.3
20201031083122 34 176 0.0 1.0 0.00 0.00 0.00 96 1028.1
20201031082118 34 0.0 0.0 0.00 0.00 0.00 96 1027.6
20201031081118 33 0.0 1.0 0.00 0.00 0.00 98 1027.4
20201031080134 32 179 0.0 2.0 0.00 0.00 0.00 99 1027.3
20201031075127 32 0.0 0.0 0.00 0.00 0.00 99 1027.3
20201031074118 31 0.0 0.0 0.00 0.00 0.00 99 1027.3
20201031073117 31 0.0 0.0 0.00 0.00 0.00 98 1027.3
20201031072121 31 174 0.0 2.0 0.00 0.00 0.00 98 1027.2
20201031071121 31 0.0 0.0 0.00 0.00 0.00 98 1027.1
20201031070119 32 0.0 0.0 0.00 0.00 0.00 98 1026.9
20201031065123 32 0.0 1.0 0.00 0.00 0.00 97 1026.8
20201031064117 33 0.0 0.0 0.00 0.00 0.00 97 1026.7
20201031063129 34 0.0 0.0 0.00 0.00 0.00 96 1026.6
20201031062119 35 0.0 0.0 0.00 0.00 0.00 94 1026.7
20201031061117 35 0.0 0.0 0.00 0.00 0.00 93 1026.5
20201031060120 35 0.0 1.0 0.00 0.00 0.00 93 1026.4
20201031055118 35 0.0 0.0 0.00 0.00 0.00 92 1026.4
20201031054117 35 0.0 0.0 0.00 0.00 0.00 91 1026.3
20201031053118 36 0.0 0.0 0.00 0.00 0.00 92 1026.2
20201031052117 35 0.0 0.0 0.00 0.00 0.00 94 1026.1
20201031051119 36 0.0 0.0 0.00 0.00 0.00 92 1026.1
20201031050118 37 0.0 0.0 0.00 0.00 0.00 90 1026.1
20201031045117 38 0.0 0.0 0.00 0.00 0.00 88 1026.0
20201031044121 39 0.0 0.0 0.00 0.00 0.00 88 1025.8
20201031043127 41 0.0 0.0 0.00 0.00 0.00 82 1025.4
20201031042121 42 0.0 1.0 0.00 0.00 0.00 80 1025.2
20201031041120 42 355 0.0 2.0 0.00 0.00 0.00 80 1025.2
20201031040117 43 357 0.0 3.0 0.00 0.00 0.00 79 1025.1
20201031035118 43 345 1.0 3.0 0.00 0.00 0.00 79 1025.1
20201031034117 43 359 1.0 5.0 0.00 0.00 0.00 79 1024.9
20201031033136 43 358 2.0 6.0 0.00 0.00 0.00 79 1024.8
20201031032118 43 11 0.0 4.0 0.00 0.00 0.00 80 1024.7
20201031031118 44 345 0.0 3.0 0.00 0.00 0.00 79 1024.6
20201031030124 45 354 1.0 5.0 0.00 0.00 0.00 79 1024.4
20201031025125 45 359 2.0 4.0 0.00 0.00 0.00 78 1024.2
20201031024124 45 339 3.0 6.0 0.00 0.00 0.00 77 1024.1
20201031023136 46 343 0.0 4.0 0.00 0.00 0.00 77 1023.9
20201031022124 47 3 2.0 7.0 0.00 0.00 0.00 75 1023.6
20201031021123 48 289 2.0 8.0 0.00 0.00 0.00 74 1023.5
20201031020119 49 344 3.0 8.0 0.00 0.00 0.00 69 1023.1
20201031015119 50 306 2.0 7.0 0.00 0.00 0.00 68 1022.7
20201031014117 50 229 2.0 8.0 0.00 0.00 0.00 68 1022.4
20201031013119 50 215 2.0 8.0 0.00 0.00 0.00 67 1022.2
20201031012120 51 241 2.0 8.0 0.00 0.00 0.00 66 1021.9
20201031011120 51 209 4.0 10.0 0.00 0.00 0.00 65 1021.8
20201031010127 52 306 2.0 7.0 0.00 0.00 0.00 64 1021.8
20201031005129 52 293 2.0 8.0 0.00 0.00 0.00 63 1021.5
20201031004118 54 26 4.0 11.0 0.00 0.00 0.00 63 1021.2
20201031003123 54 256 4.0 11.0 0.00 0.00 0.00 62 1020.7
20201031002146 54 151 6.0 12.0 0.00 0.00 0.00 64 1020.8
20201031001120 55 206 5.0 13.0 0.00 0.00 0.00 65 1020.6
20201031000120 56 285 3.0 7.0 0.00 0.00 0.00 66 1020.6
20201030235119 56 235 4.0 9.0 0.00 0.00 0.00 67 1020.8
20201030234121 56 179 4.0 8.0 0.00 0.00 0.00 69 1020.9
20201030233121 55 211 4.0 10.0 0.00 0.00 0.00 71 1020.7
20201030232124 55 204 4.0 11.0 0.00 0.00 0.00 72 1020.5
20201030231123 55 215 4.0 10.0 0.00 0.00 0.00 72 1020.4
20201030230117 56 211 5.0 10.0 0.00 0.00 0.00 70 1020.4
20201030225117 56 194 3.0 11.0 0.00 0.00 0.00 69 1020.3
20201030224123 56 239 4.0 9.0 0.00 0.00 0.00 70 1020.4
20201030223121 56 207 5.0 10.0 0.00 0.00 0.00 70 1020.5
20201030222117 57 237 4.0 9.0 0.00 0.00 0.00 69 1020.3
20201030221117 57 216 2.0 7.0 0.00 0.00 0.00 68 1020.2
20201030220120 57 222 3.0 9.0 0.00 0.00 0.00 68 1020.2
20201030215124 58 179 4.0 9.0 0.00 0.00 0.00 68 1020.1
20201030214118 57 205 3.0 10.0 0.00 0.00 0.00 68 1020.0
20201030213117 57 216 4.0 9.0 0.00 0.00 0.00 69 1020.0
20201030212119 57 200 5.0 11.0 0.00 0.00 0.00 68 1020.0
20201030211117 57 189 6.0 13.0 0.00 0.00 0.00 69 1019.9
20201030210122 57 214 6.0 12.0 0.00 0.00 0.00 68 1019.9
20201030205117 59 201 5.0 11.0 0.00 0.00 0.00 66 1019.8
20201030204120 59 224 6.0 14.0 0.00 0.00 0.00 66 1019.8
20201030203118 59 219 6.0 14.0 0.00 0.00 0.00 66 1019.9
20201030202117 59 158 6.0 17.0 0.00 0.00 0.00 65 1019.8
20201030201119 59 218 6.0 12.0 0.00 0.00 0.00 65 1019.9
20201030200120 59 219 6.0 13.0 0.00 0.00 0.00 64 1020.0
20201030195117 59 223 6.0 12.0 0.00 0.00 0.00 63 1019.9
20201030194118 59 223 6.0 11.0 0.00 0.00 0.00 63 1019.9
20201030193131 58 205 7.0 15.0 0.00 0.00 0.00 64 1020.0
20201030192119 60 216 5.0 13.0 0.00 0.00 0.00 60 1019.9
20201030191120 60 192 6.0 16.0 0.00 0.00 0.00 58 1019.8
20201030190126 60 232 5.0 11.0 0.00 0.00 0.00 57 1019.7
20201030185118 60 257 5.0 14.0 0.00 0.00 0.00 55 1019.5
20201030184121 61 286 3.0 10.0 0.00 0.00 0.00 53 1019.2
20201030183121 62 298 5.0 11.0 0.00 0.00 0.00 50 1018.7
20201030182120 61 319 5.0 16.0 0.00 0.00 0.00 49 1018.2
20201030181135 61 222 7.0 16.0 0.00 0.00 0.00 48 1017.8
20201030180144 61 226 6.0 14.0 0.00 0.00 0.00 46 1017.3
20201030175119 61 218 6.0 13.0 0.00 0.00 0.00 43 1016.9
20201030174117 60 168 8.0 19.0 0.00 0.00 0.00 41 1016.7
20201030173126 60 288 5.0 14.0 0.00 0.00 0.00 40 1016.9
20201030172117 58 278 4.0 12.0 0.00 0.00 0.00 47 1017.8
20201030171117 56 299 2.0 13.0 0.00 0.00 0.00 47 1017.8
20201030170127 52 165 1.0 4.0 0.00 0.00 0.00 52 1018.3
20201030165119 51 166 1.0 5.0 0.00 0.00 0.00 51 1018.2
20201030164123 50 342 0.0 4.0 0.00 0.00 0.00 51 1018.0
20201030163122 47 0.0 1.0 0.00 0.00 0.00 54 1018.5
20201030162133 46 176 0.0 5.0 0.00 0.00 0.00 56 1018.7
20201030161119 44 0.0 2.0 0.00 0.00 0.00 56 1018.5
20201030160201 42 146 0.0 4.0 0.00 0.00 0.00 57 1018.8
20201030155124 41 0.0 2.0 0.00 0.00 0.00 57 1018.7
20201030154117 39 158 0.0 3.0 0.00 0.00 0.00 59 1018.9
20201030153123 38 250 0.0 3.0 0.00 0.00 0.00 61 1019.0
20201030152120 36 139 1.0 4.0 0.00 0.00 0.00 64 1019.1
20201030151131 36 166 0.0 3.0 0.00 0.00 0.00 63 1019.2
20201030150124 35 145 1.0 5.0 0.00 0.00 0.00 64 1019.2
20201030145125 35 167 0.0 4.0 0.00 0.00 0.00 66 1019.4
20201030144118 35 129 1.0 3.0 0.00 0.00 0.00 66 1019.3
20201030143119 36 165 0.0 2.0 0.00 0.00 0.00 63 1019.1
20201030142123 38 151 0.0 5.0 0.00 0.00 0.00 58 1018.6
20201030141126 39 136 1.0 4.0 0.00 0.00 0.00 56 1018.1
20201030140129 39 129 1.0 4.0 0.00 0.00 0.00 57 1018.0
20201030135125 38 162 1.0 4.0 0.00 0.00 0.00 59 1018.1